UNISAT

Satellite information

Favourite Embed

Satellite Type and Status

PAYLOADIN ORBIT

Key statistics

Satellite UNISAT at a glance.

Uptime

9157

Days in orbit

Revolutions

≈ 15.1

Per day

Orbit

LEO

Low Earth Orbit

Inclination

64.5

Latest

Satellite identification and parameters

Extended collection of information and parameters for UNISAT.

Object identification

Identified? True

Debris? False

Object name: UNISAT

International designator: 2000-057C

Object number (NORAD): 26547

Object ID (CCSDS): 26547

Country: ITALY (IT)

Current information (Y/N): Y

RCS size: SMALL

Orbital parameters

Period: 95.567 minutes

Inclination: 64.5447 deg

SMA: 6924.124 km

Apoapsis: 561.438 km

Periapsis: 530.539 km

RAAN: 163.0381 deg

Eccentricy: 0.00223124

Argument of periapsis: 326.5598 deg

Mean anomaly: 33.4109 deg

Mean motion: 15.06799709 rev/day

Mean motion (dot): 0.00008159 rev/day2

B* drag term: 0.0005539511 1/REarth

Two-line elements (TLE)

Creation date: Oct. 21, 2025, 3:26 a.m.

Reference frame: TEME

Reference center: EARTH

Epoch: Oct. 20, 2025, 9:22 p.m. UTC

TLE line 0: 0 UNISAT

TLE line 1: 1 26547U 00057C 25293.89089166 .00008159 00000-0 55395-3 0 9997

TLE line 2: 2 26547 64.5447 163.0381 0022312 326.5598 33.4109 15.06799709360424

Live tracking on map

Real-time ground track for satellite UNISAT.

In-orbit conjunctions

There are no conjunctions computed for UNISAT, at the moment. Check back to stay up to date, as we update our databases every day.

Go to all conjunctions

Associated space launch

Four small satellites were launched atop the Dnepr launch vehicle : MegSat 1, UniSat 1, TiungSat 1 as well as SaudiSat 1a and 1b. MegSat 1 is the second MegSat satellite. It is a LEO communications satellite. UniSat 1 is an Italian satellite developed and operated by GAUSS (La Sapienza University of Rome). TiungSAT-1 or MySat (Malaysian Satellite) is the first microsatellite for the Astronautic Technology (M) SDN. BHD. Company (ATSB) in Kuala Lumpur, Malaysia. Saudisat-1a and Saudisat-1b (Saudi Arabian Satellite) are the first Saudi Arabian micro satellites.

UNISAT was lifted into orbit during the mission ‘Dnepr | SmallSat Rideshare’, on board a Dnepr space rocket.

The launch took place on Sept. 26, 2000, 10:05 a.m. from 109/95.

For more information about the launch, click the button.

Launch to space Dnepr | SmallSat Rideshare
Dnepr | SmallSat Rideshare

Agency: N/A

Status: Launch Successful

Launch date: Sept. 26, 2000, 10:05 a.m. UTC

Rocket: Dnepr

Launch pad: 109/95

Location: Baikonur Cosmodrome, Republic of Kazakhstan

...

Latest news about this satellite

There are no fresh news available about this satellite. Check back as we update our databases every day.


Newsletter sign-up

Weekly statistics, charts and insights to help you stay on top of the space industry.